Weather History for Taos, NM

Change the Weather History Date:

Wednesday, April 30, 2014

  Actual Average Record
Temperature  
Mean Temperature 37 °F -  
Max Temperature 53 °F 63 °F 78 °F (2013)
Min Temperature 21 °F 30 °F 21 °F (2014)
Degree Days  
Heating Degree Days 28    
Moisture  
Dew Point 15 °F    
Average Humidity 40    
Maximum Humidity 65    
Minimum Humidity 18    
Precipitation  
Precipitation 0.00 in - - ()
Sea Level Pressure  
Sea Level Pressure 30.25 in    
Wind  
Wind Speed 9 mph (NE)    
Max Wind Speed 21 mph    
Max Gust Speed 28 mph    
Visibility 10 miles    
Events      
Averages and records for this station are not official NWS values.
T = Trace of Precipitation, MM = Missing Value Source: NWS Daily Summary

Daily Weather History Graph

Daily Weather History Graph

Search for Another Location

Airport:

Trip Planner

Search our weather history database for the weather conditions in past years. The results will help you decide how hot, cold, wet, or windy it might be!

Date:

Astronomy

Apr. 30, 2014 Rise Set
Actual Time 6:10 AM MDT 7:49 PM MDT
Civil Twilight 5:42 AM MDT 8:17 PM MDT
Nautical Twilight 5:09 AM MDT 8:50 PM MDT
Astronomical Twilight 4:34 AM MDT 9:26 PM MDT
Moon 7:14 AM MDT (4/30) 9:29 PM MDT (4/30)
Length of Visible Light 14h 34m
Length of Day
13h 39m
Waxing Crescent, 3% of the Moon is Illuminated
Apr 30
Waxing Crescent
May 6
First Quarter
May 14
Full
May 21
Last Quarter
May 28
New

Hourly Weather History & Observations

Time (MDT) Temp. Windchill Dew Point Humidity Pressure Visibility Wind Dir Wind Speed Gust Speed Precip Events Conditions
12:15 AM 30.2 °F 21.3 °F 8.6 °F 40% 30.24 in 10.0 mi North 10.4 mph - N/A   Partly Cloudy
12:35 AM 32.0 °F 23.0 °F 12.2 °F 44% 30.24 in 10.0 mi North 11.5 mph - N/A   Partly Cloudy
12:55 AM 33.8 °F 25.8 °F 10.4 °F 38% 30.25 in 10.0 mi North 10.4 mph - N/A   Clear
1:15 AM 32.0 °F 23.0 °F 10.4 °F 41% 30.25 in 10.0 mi North 11.5 mph - N/A   Clear
1:35 AM 30.2 °F 25.4 °F 10.4 °F 44% 30.26 in 10.0 mi NE 4.6 mph - N/A   Clear
1:55 AM 33.8 °F 27.7 °F 10.4 °F 38% 30.26 in 10.0 mi ENE 6.9 mph - N/A   Clear
2:15 AM 33.8 °F 28.6 °F 10.4 °F 38% 30.26 in 10.0 mi NNE 5.8 mph - N/A   Clear
2:35 AM 28.4 °F 22.2 °F 8.6 °F 43% 30.26 in 10.0 mi NNE 5.8 mph - N/A   Clear
2:55 AM 28.4 °F 20.4 °F 10.4 °F 47% 30.26 in 10.0 mi North 8.1 mph - N/A   Clear
3:15 AM 28.4 °F 21.2 °F 10.4 °F 47% 30.26 in 10.0 mi NNE 6.9 mph - N/A   Clear
3:35 AM 26.6 °F 21.2 °F 8.6 °F 47% 30.26 in 10.0 mi NNE 4.6 mph - N/A   Clear
3:55 AM 28.4 °F 22.2 °F 10.4 °F 47% 30.26 in 10.0 mi North 5.8 mph - N/A   Clear
4:15 AM 24.8 °F 16.1 °F 8.6 °F 50% 30.26 in 10.0 mi NNW 8.1 mph - N/A   Clear
4:35 AM 24.8 °F 19.1 °F 8.6 °F 50% 30.26 in 10.0 mi NNE 4.6 mph - N/A   Clear
5:15 AM 24.8 °F 17.9 °F 10.4 °F 54% 30.26 in 10.0 mi NE 5.8 mph - N/A   Clear
5:35 AM 24.8 °F 16.9 °F 10.4 °F 54% 30.25 in 10.0 mi ENE 6.9 mph - N/A   Clear
5:55 AM 24.8 °F 19.1 °F 12.2 °F 59% 30.26 in 10.0 mi NNE 4.6 mph - N/A   Clear
6:15 AM 24.8 °F - 10.4 °F 54% 30.26 in 10.0 mi Calm Calm - N/A   Clear
6:35 AM 21.2 °F - 10.4 °F 63% 30.27 in 10.0 mi Calm Calm - N/A   Clear
6:55 AM 23.0 °F - 12.2 °F 63% 30.27 in 10.0 mi Calm Calm - N/A   Clear
7:15 AM 28.4 °F - 15.8 °F 59% 30.27 in 10.0 mi Calm Calm - N/A   Clear
7:35 AM 30.2 °F - 17.6 °F 60% 30.28 in 10.0 mi Calm Calm - N/A   Clear
7:55 AM 32.0 °F - 17.6 °F 55% 30.28 in 10.0 mi Calm Calm - N/A   Clear
8:15 AM 33.8 °F - 17.6 °F 52% 30.29 in 10.0 mi Calm Calm - N/A   Clear
8:35 AM 37.4 °F - 17.6 °F 45% 30.29 in 10.0 mi Calm Calm - N/A   Clear
9:15 AM 41.0 °F 34.7 °F 17.6 °F 39% 30.29 in 10.0 mi North 10.4 mph 24.2 mph N/A   Clear
9:35 AM 42.8 °F 35.8 °F 12.2 °F 29% 30.28 in 10.0 mi North 13.8 mph 18.4 mph N/A   Clear
9:55 AM 42.8 °F 36.2 °F 12.2 °F 29% 30.29 in 10.0 mi North 12.7 mph 23.0 mph N/A   Clear
10:15 AM 44.6 °F 38.8 °F 12.2 °F 27% 30.28 in 10.0 mi North 11.5 mph 17.3 mph N/A   Clear
10:35 AM 44.6 °F 39.7 °F 12.2 °F 27% 30.28 in 10.0 mi North 9.2 mph 16.1 mph N/A   Clear
10:55 AM 46.4 °F 41.9 °F 12.2 °F 25% 30.28 in 10.0 mi North 9.2 mph - N/A   Clear
11:15 AM 46.4 °F 42.9 °F 12.2 °F 25% 30.28 in 10.0 mi North 6.9 mph - N/A   Clear
11:35 AM 46.4 °F 44.3 °F 10.4 °F 23% 30.28 in 10.0 mi North 4.6 mph 19.6 mph N/A   Partly Cloudy
11:55 AM 46.4 °F 40.7 °F 10.4 °F 23% 30.27 in 10.0 mi North 12.7 mph 16.1 mph N/A   Partly Cloudy
12:15 PM 46.4 °F 42.4 °F 10.4 °F 23% 30.26 in 10.0 mi NNE 8.1 mph - N/A   Partly Cloudy
12:35 PM 46.4 °F 44.3 °F 10.4 °F 23% 30.25 in 10.0 mi North 4.6 mph 16.1 mph N/A   Clear
12:55 PM 48.2 °F - 10.4 °F 22% 30.25 in 10.0 mi North 8.1 mph - N/A   Clear
1:15 PM 50.0 °F - 10.4 °F 20% 30.23 in 10.0 mi WNW 5.8 mph - N/A   Scattered Clouds
1:35 PM 50.0 °F - 10.4 °F 20% 30.23 in 10.0 mi NW 8.1 mph 18.4 mph N/A   Partly Cloudy
1:55 PM 51.8 °F - 12.2 °F 21% 30.22 in 10.0 mi NNE 12.7 mph 16.1 mph N/A   Partly Cloudy
2:15 PM 51.8 °F - 10.4 °F 19% 30.21 in 10.0 mi North 9.2 mph 18.4 mph N/A   Partly Cloudy
2:35 PM 51.8 °F - 10.4 °F 19% 30.20 in 10.0 mi WNW 5.8 mph - N/A   Clear
3:15 PM 53.6 °F - 10.4 °F 18% 30.19 in 10.0 mi Calm Calm - N/A   Mostly Cloudy
3:35 PM 51.8 °F - 10.4 °F 19% 30.18 in 10.0 mi NW 10.4 mph - N/A   Overcast
3:55 PM 51.8 °F - 15.8 °F 24% 30.18 in 10.0 mi East 9.2 mph - N/A   Overcast
4:15 PM 51.8 °F - 15.8 °F 24% 30.18 in 10.0 mi ESE 16.1 mph 20.7 mph N/A   Overcast
4:35 PM 50.0 °F - 19.4 °F 30% 30.18 in 10.0 mi ESE 18.4 mph - N/A   Overcast
4:55 PM 50.0 °F - 19.4 °F 30% 30.19 in 10.0 mi East 19.6 mph - N/A   Overcast
5:15 PM 50.0 °F - 19.4 °F 30% 30.19 in 10.0 mi ESE 17.3 mph - N/A   Overcast
5:35 PM 48.2 °F - 19.4 °F 32% 30.19 in 10.0 mi ESE 16.1 mph - N/A   Scattered Clouds
5:55 PM 50.0 °F - 19.4 °F 30% 30.19 in 10.0 mi ESE 13.8 mph - N/A   Scattered Clouds
6:15 PM 48.2 °F - 19.4 °F 32% 30.20 in 10.0 mi SE 13.8 mph - N/A   Mostly Cloudy
6:35 PM 48.2 °F - 19.4 °F 32% 30.20 in 10.0 mi SE 12.7 mph - N/A   Overcast
7:15 PM 46.4 °F 39.5 °F 21.2 °F 37% 30.21 in 10.0 mi ESE 17.3 mph - N/A   Overcast
7:35 PM 44.6 °F 36.9 °F 23.0 °F 43% 30.22 in 10.0 mi ESE 18.4 mph 21.9 mph N/A   Mostly Cloudy
7:55 PM 42.8 °F 35.1 °F 24.8 °F 49% 30.23 in 10.0 mi ESE 16.1 mph - N/A   Mostly Cloudy
8:15 PM 41.0 °F 32.8 °F 24.8 °F 53% 30.23 in 10.0 mi ESE 16.1 mph - N/A   Mostly Cloudy
8:35 PM 39.2 °F 29.6 °F 24.8 °F 56% 30.24 in 10.0 mi ESE 19.6 mph - N/A   Overcast
8:55 PM 39.2 °F 30.8 °F 24.8 °F 56% 30.25 in 10.0 mi ESE 15.0 mph 24.2 mph N/A   Partly Cloudy
9:15 PM 39.2 °F 29.6 °F 24.8 °F 56% 30.26 in 10.0 mi SE 19.6 mph 24.2 mph N/A   Mostly Cloudy
9:35 PM 39.2 °F 30.2 °F 24.8 °F 56% 30.27 in 10.0 mi SE 17.3 mph 23.0 mph N/A   Overcast
9:55 PM 41.0 °F 33.5 °F 24.8 °F 53% 30.28 in 10.0 mi SE 13.8 mph 20.7 mph N/A   Overcast
10:15 PM 41.0 °F 33.1 °F 24.8 °F 53% 30.29 in 10.0 mi SE 15.0 mph - N/A   Overcast
10:35 PM 41.0 °F 31.9 °F 23.0 °F 49% 30.29 in 10.0 mi SE 19.6 mph - N/A   Overcast
10:55 PM 39.2 °F 29.6 °F 24.8 °F 56% 30.29 in 10.0 mi ESE 19.6 mph - N/A   Overcast
11:15 PM 39.2 °F 29.3 °F 24.8 °F 56% 30.30 in 10.0 mi ESE 20.7 mph - N/A   Overcast
11:35 PM 37.4 °F 26.9 °F 24.8 °F 60% 30.30 in 10.0 mi ESE 20.7 mph 27.6 mph N/A   Mostly Cloudy
11:55 PM 37.4 °F 27.5 °F 26.6 °F 65% 30.30 in 10.0 mi ESE 18.4 mph 24.2 mph N/A   Scattered Clouds